• In Hungary
  • List of Countries
  • For 7 days
  • Water Temperature
  • Satellite Maps
  • Weather Map
  • News
  • Weather Widgets
  • user-avatar
    Login

    Hourly Weather Polatkino

    Today, 22 June, Friday

    Time Temperature Precipitation Wind Pressure Humidity
    00:00 +14°C° 0 mm 5 mps 744 mmHg 63%
    01:00 +13°C° 0 mm 5 mps 744 mmHg 63%
    02:00 +13°C° 0 mm 5 mps 745 mmHg 64%
    03:00 +13°C° 0 mm 5 mps 745 mmHg 66%
    04:00 +13°C° 0 mm 5 mps 745 mmHg 67%
    05:00 +14°C° 0 mm 5 mps 746 mmHg 68%
    06:00 +15°C° 0 mm 5 mps 746 mmHg 68%
    07:00 +16°C° 0 mm 5 mps 746 mmHg 63%
    08:00 +19°C° 0 mm 5 mps 747 mmHg 58%
    09:00 +20°C° 0 mm 6 mps 747 mmHg 52%
    10:00 +21°C° 0 mm 6 mps 747 mmHg 50%
    11:00 +22°C° 0 mm 6 mps 747 mmHg 48%
    12:00 +23°C° 0 mm 6 mps 748 mmHg 46%
    13:00 +23°C° 0 mm 5 mps 748 mmHg 45%
    14:00 +23°C° 0 mm 5 mps 748 mmHg 45%
    15:00 +25°C° 0 mm 5 mps 748 mmHg 44%
    16:00 +23°C° 0 mm 4 mps 748 mmHg 49%
    17:00 +24°C° 0 mm 3 mps 748 mmHg 53%
    18:00 +23°C° 0 mm 2 mps 748 mmHg 57%
    19:00 +20°C° 0 mm 2 mps 748 mmHg 62%
    20:00 +18°C° 0 mm 2 mps 748 mmHg 67%
    21:00 +16°C° 0 mm 1 mps 748 mmHg 72%
    22:00 +16°C° 0 mm 1 mps 749 mmHg 75%
    23:00 +15°C° 0 mm 1 mps 749 mmHg 78%

    Tomorrow, 23 June, Saturday

    Time Temperature Precipitation Wind Pressure Humidity
    00:00 +15°C° 0 mm 1 mps 749 mmHg 81%
    01:00 +15°C° 0 mm 1 mps 749 mmHg 83%
    02:00 +14°C° 0 mm 1 mps 749 mmHg 85%
    03:00 +14°C° 0 mm 1 mps 749 mmHg 87%
    04:00 +16°C° 0 mm 1 mps 749 mmHg 85%
    05:00 +18°C° 0 mm 1 mps 749 mmHg 82%
    06:00 +19°C° 0 mm 1 mps 749 mmHg 80%
    07:00 +21°C° 0 mm 1 mps 750 mmHg 74%
    08:00 +23°C° 0 mm 2 mps 750 mmHg 68%
    09:00 +26°C° 0 mm 2 mps 750 mmHg 63%
    10:00 +26°C° 0 mm 2 mps 750 mmHg 60%
    11:00 +27°C° 0 mm 2 mps 750 mmHg 58%
    12:00 +28°C° 0 mm 2 mps 749 mmHg 55%
    13:00 +28°C° 0 mm 2 mps 749 mmHg 55%
    14:00 +29°C° 0 mm 2 mps 749 mmHg 55%
    15:00 +29°C° 0 mm 2 mps 749 mmHg 55%
    16:00 +29°C° 0 mm 2 mps 749 mmHg 59%
    17:00 +28°C° 0 mm 2 mps 749 mmHg 62%
    18:00 +28°C° 0 mm 1 mps 749 mmHg 65%
    19:00 +26°C° 0 mm 1 mps 749 mmHg 71%
    20:00 +25°C° 0 mm 1 mps 749 mmHg 77%
    21:00 +23°C° 0 mm 1 mps 749 mmHg 83%
    22:00 +22°C° 0 mm 1 mps 749 mmHg 85%
    23:00 +22°C° 0 mm 1 mps 749 mmHg 87%

    Day after tomorrow, 24 June, Sunday

    Time Temperature Precipitation Wind Pressure Humidity
    00:00 +21°C° 0 mm 1 mps 749 mmHg 90%
    01:00 +21°C° 0 mm 1 mps 750 mmHg 91%
    02:00 +20°C° 0 mm 1 mps 750 mmHg 92%
    03:00 +20°C° 0 mm 1 mps 750 mmHg 93%
    04:00 +21°C° 0 mm 1 mps 750 mmHg 89%
    05:00 +23°C° 0 mm 1 mps 750 mmHg 85%
    06:00 +24°C° 0 mm 1 mps 750 mmHg 81%
    07:00 +25°C° 0.2 mm 1 mps 750 mmHg 77%
    08:00 +27°C° 0.2 mm 1 mps 750 mmHg 73%
    09:00 +28°C° 0.2 mm 1 mps 750 mmHg 69%
    10:00 +29°C° 0.3 mm 2 mps 750 mmHg 64%
    11:00 +30°C° 0.3 mm 2 mps 750 mmHg 60%
    12:00 +31°C° 0.3 mm 2 mps 750 mmHg 55%
    13:00 +31°C° 0.2 mm 2 mps 750 mmHg 55%
    14:00 +31°C° 0.2 mm 2 mps 750 mmHg 56%
    15:00 +31°C° 0.2 mm 2 mps 750 mmHg 56%
    16:00 +30°C° 0.1 mm 2 mps 750 mmHg 59%
    17:00 +30°C° 0.1 mm 1 mps 750 mmHg 63%
    18:00 +29°C° 0.1 mm 1 mps 750 mmHg 66%
    19:00 +28°C° 0.1 mm 1 mps 750 mmHg 71%
    20:00 +26°C° 0.1 mm 1 mps 751 mmHg 75%
    21:00 +24°C° 0.1 mm 1 mps 751 mmHg 80%
    22:00 +23°C° 0 mm 1 mps 751 mmHg 82%
    23:00 +23°C° 0 mm 1 mps 751 mmHg 85%

    25 June, Monday

    Time Temperature Precipitation Wind Pressure Humidity
    00:00 +22°C° 0 mm 1 mps 751 mmHg 87%
    01:00 +22°C° 0 mm 1 mps 751 mmHg 87%
    02:00 +21°C° 0 mm 1 mps 751 mmHg 88%
    03:00 +21°C° 0 mm 1 mps 751 mmHg 88%
    04:00 +22°C° 0 mm 1 mps 751 mmHg 84%
    05:00 +23°C° 0 mm 1 mps 751 mmHg 81%
    06:00 +24°C° 0 mm 1 mps 752 mmHg 77%
    07:00 +26°C° 0 mm 1 mps 752 mmHg 71%
    08:00 +27°C° 0 mm 1 mps 751 mmHg 65%
    09:00 +29°C° 0 mm 2 mps 751 mmHg 60%
    10:00 +30°C° 0 mm 2 mps 751 mmHg 55%
    11:00 +30°C° 0 mm 2 mps 751 mmHg 51%
    12:00 +31°C° 0 mm 2 mps 751 mmHg 47%
    13:00 +31°C° 0 mm 2 mps 751 mmHg 47%
    14:00 +31°C° 0 mm 2 mps 751 mmHg 48%
    15:00 +31°C° 0 mm 2 mps 751 mmHg 48%
    16:00 +30°C° 0 mm 2 mps 751 mmHg 52%
    17:00 +30°C° 0 mm 2 mps 751 mmHg 55%
    18:00 +29°C° 0 mm 2 mps 751 mmHg 59%
    19:00 +27°C° 0 mm 1 mps 751 mmHg 64%
    20:00 +26°C° 0 mm 1 mps 751 mmHg 68%
    21:00 +24°C° 0 mm 1 mps 751 mmHg 73%
    22:00 +23°C° 0.1 mm 1 mps 751 mmHg 76%
    23:00 +22°C° 0.1 mm 1 mps 751 mmHg 80%

    26 June, Tuesday

    Time Temperature Precipitation Wind Pressure Humidity
    00:00 +22°C° 0.1 mm 1 mps 751 mmHg 83%
    01:00 +21°C° 0.8 mm 1 mps 751 mmHg 86%
    02:00 +21°C° 0.8 mm 1 mps 751 mmHg 88%
    03:00 +20°C° 0.8 mm 1 mps 751 mmHg 90%
    04:00 +21°C° 0 mm 1 mps 751 mmHg 89%
    05:00 +22°C° 0 mm 1 mps 751 mmHg 88%
    06:00 +23°C° 0 mm 1 mps 751 mmHg 86%
    07:00 +24°C° 0 mm 2 mps 751 mmHg 79%
    08:00 +25°C° 0 mm 2 mps 751 mmHg 72%
    09:00 +27°C° 0 mm 2 mps 751 mmHg 65%
    10:00 +28°C° 0.1 mm 2 mps 751 mmHg 61%
    11:00 +29°C° 0.1 mm 2 mps 751 mmHg 57%
    12:00 +29°C° 0.1 mm 2 mps 750 mmHg 53%
    13:00 +30°C° 0 mm 2 mps 750 mmHg 52%
    14:00 +30°C° 0 mm 2 mps 750 mmHg 50%
    15:00 +30°C° 0 mm 2 mps 750 mmHg 49%
    16:00 +30°C° 0 mm 2 mps 750 mmHg 53%
    17:00 +29°C° 0 mm 2 mps 750 mmHg 58%
    18:00 +28°C° 0 mm 2 mps 750 mmHg 62%
    19:00 +26°C° 0 mm 2 mps 751 mmHg 68%
    20:00 +25°C° 0 mm 2 mps 751 mmHg 74%
    21:00 +23°C° 0 mm 2 mps 751 mmHg 80%
    22:00 +21°C° 0 mm 2 mps 751 mmHg 82%
    23:00 +20°C° 0 mm 2 mps 751 mmHg 84%

    27 June, Wednesday

    Time Temperature Precipitation Wind Pressure Humidity
    00:00 +20°C° 0 mm 2 mps 751 mmHg 86%
    01:00 +19°C° 0 mm 2 mps 751 mmHg 86%
    02:00 +19°C° 0 mm 2 mps 751 mmHg 86%
    03:00 +18°C° 0 mm 2 mps 751 mmHg 86%
    04:00 +19°C° 0 mm 2 mps 751 mmHg 83%
    05:00 +20°C° 0 mm 2 mps 751 mmHg 79%
    06:00 +21°C° 0 mm 2 mps 751 mmHg 75%
    07:00 +24°C° 0 mm 2 mps 751 mmHg 68%
    08:00 +25°C° 0 mm 2 mps 751 mmHg 62%
    09:00 +27°C° 0 mm 2 mps 751 mmHg 56%
    10:00 +28°C° 0 mm 2 mps 751 mmHg 51%
    11:00 +29°C° 0 mm 2 mps 751 mmHg 47%
    12:00 +30°C° 0 mm 3 mps 751 mmHg 43%
    13:00 +30°C° 0 mm 3 mps 750 mmHg 43%
    14:00 +30°C° 0 mm 3 mps 750 mmHg 42%
    15:00 +30°C° 0 mm 3 mps 750 mmHg 42%
    16:00 +29°C° 0 mm 3 mps 750 mmHg 47%
    17:00 +28°C° 0 mm 2 mps 750 mmHg 51%
    18:00 +28°C° 0 mm 2 mps 750 mmHg 56%
    19:00 +25°C° 0 mm 2 mps 750 mmHg 61%
    20:00 +23°C° 0 mm 2 mps 750 mmHg 65%
    21:00 +20°C° 0 mm 2 mps 750 mmHg 69%
    22:00 +20°C° 0 mm 2 mps 750 mmHg 71%
    23:00 +19°C° 0 mm 2 mps 750 mmHg 72%
    Show more